International Virtual Aviation Organisation

Russian Federation and Kazakhstan MCD

 

Карточка аэропорта UIII

Внимание!
Информация на этой странице в стадии наполнения.
Если вы не увидели какой-то информации, или заметили неточность - пожалуйста сообщите нам!
Спасибо!
Команда RU-STAFF
Название аэропортаИркутск
Название аэропорта (англ.)Irkutsk
Превышение1686 ft. (513.9 m.)
Координаты52°16.032', 104°23.7'
Высота перехода1100m
Эшелон переходаFL070
Коды ответчика3330-3347
Зона ОрВДИркутск РПИ (UIII)
Данные METARUIII 242230Z 12001MPS 5000 BR NSC M03/M03 Q1013 R30/CLRD60 NOSIG RMK QFE715/0953
Проноз погоды (TAF)UIII 242010Z 2420/2521 16004MPS 2000 BR SCT020CB TEMPO 2420/2501 0500 FZFG VV001 BECMG 2501/2502 9999 NSW BECMG 2510/2512 32007MPS BKN008CB TEMPO 2512/2521 32010G15MPS
NOTAMshow/hide NOTAM
AWOS   TABLE

Информация о ВПП

ВПП Длина ВПП (м.) Покрытие Курс ВПП Частота ILS
123565Железобетон117111.3
303565Железобетон297110.3

Диспетчерские позиции

Позывной Наименование органа УВД Частота
UIII_APPИркутск-Подход125.2
UIII_R_APPИркутск-Круг119.3
UIII_TWRИркутск-Вышка118.1
UIII_GNDИркутск-Руление121.7



Спутниковое изображение